Weather History for KSNY - August, 2013

Change the Weather History Date:

Saturday, August 10, 2013

  Actual Average Record
Temperature  
Mean Temperature 73 °F 74 °F  
Max Temperature 90 °F 89 °F 98 °F (1962)
Min Temperature 56 °F 60 °F 44 °F (1960)
Degree Days  
Heating Degree Days 0 0  
Month to date heating degree days 1 0  
Since 1 June heating degree days 46 62  
Since 1 July heating degree days 9 3  
Cooling Degree Days 8 10  
Month to date cooling degree days 52 100  
Year to date cooling degree days 523 578  
Since 1 June cooling degree days 490 556  
Growing Degree Days 23 (Base 50)    
Moisture  
Dew Point 53 °F    
Average Humidity 58    
Maximum Humidity 93    
Minimum Humidity 23    
Precipitation  
Precipitation 0.10 in 0.07 in 0.45 in (2005)
Month to date precipitation 0.26 0.84  
Year to date precipitation 7.74 13.74  
Sea Level Pressure  
Sea Level Pressure 30.07 in    
Wind  
Wind Speed 14 mph (South)    
Max Wind Speed 28 mph    
Max Gust Speed 36 mph    
Visibility 10 miles    
Events Rain , Thunderstorm    
T = Trace of Precipitation, MM = Missing Value Source: NWS Daily Summary

Daily Weather History Graph

Daily Weather History Graph

Search for Another Location

Airport or City:

Trip Planner

Search our weather history database for the weather conditions in past years. The results will help you decide how hot, cold, wet, or windy it might be!

Date:

Astronomy

Aug. 10, 2013 Rise Set
Actual Time 5:56 AM MDT 7:56 PM MDT
Civil Twilight 5:26 AM MDT 8:26 PM MDT
Nautical Twilight 4:50 AM MDT 9:03 PM MDT
Astronomical Twilight 4:10 AM MDT 9:43 PM MDT
Moon 9:48 AM MDT (8/10) 9:36 PM MDT (8/10)
Length of Visible Light 15h 00m
Length of Day
14h 00m
Waxing Crescent, 14% of the Moon is Illuminated
Aug 10
Waxing Crescent
Aug 14
First Quarter
Aug 20
Full
Aug 28
Last Quarter
Sep 5
New

Hourly Weather History & Observations

Time (MDT) Temp. Heat Index Dew Point Humidity Pressure Visibility Wind Dir Wind Speed Gust Speed Precip Events Conditions
12:53 AM 59.0 °F - 51.1 °F 75% 30.12 in 10.0 mi South 9.2 mph - N/A   Clear
1:53 AM 59.0 °F - 53.1 °F 81% 30.11 in 10.0 mi SSW 8.1 mph - N/A   Clear
2:53 AM 63.0 °F - 54.0 °F 72% 30.09 in 10.0 mi SSW 10.4 mph - N/A   Clear
3:53 AM 57.9 °F - 53.1 °F 84% 30.09 in 10.0 mi South 8.1 mph - N/A   Clear
4:53 AM 57.0 °F - 54.0 °F 89% 30.09 in 10.0 mi South 6.9 mph - N/A   Clear
5:53 AM 57.9 °F - 55.0 °F 90% 30.08 in 10.0 mi South 11.5 mph - N/A   Clear
6:53 AM 61.0 °F - 55.9 °F 83% 30.10 in 10.0 mi South 9.2 mph - N/A   Clear
7:53 AM 66.9 °F - 55.0 °F 66% 30.11 in 10.0 mi SSW 16.1 mph - N/A   Clear
8:53 AM 71.1 °F - 55.0 °F 57% 30.10 in 10.0 mi SW 16.1 mph - N/A   Clear
9:53 AM 75.9 °F - 52.0 °F 43% 30.08 in 10.0 mi SSW 23.0 mph 31.1 mph N/A   Clear
10:53 AM 79.0 °F - 52.0 °F 39% 30.07 in 10.0 mi SSW 19.6 mph 27.6 mph N/A   Clear
11:53 AM 82.9 °F - 52.0 °F 34% 30.06 in 10.0 mi SSW 16.1 mph 24.2 mph N/A   Clear
12:53 PM 84.0 °F - 51.1 °F 32% 30.04 in 10.0 mi SSW 16.1 mph 26.5 mph N/A   Clear
1:53 PM 86.0 °F - 46.9 °F 26% 30.02 in 10.0 mi South 9.2 mph 20.7 mph N/A   Clear
2:53 PM 89.1 °F - 46.0 °F 22% 29.98 in 10.0 mi Variable 6.9 mph 19.6 mph N/A   Clear
3:53 PM 89.1 °F - 46.0 °F 22% 29.97 in 10.0 mi South 13.8 mph 18.4 mph N/A   Clear
4:53 PM 86.0 °F - 50.0 °F 29% 29.97 in 10.0 mi SSE 19.6 mph 28.8 mph N/A   Clear
5:53 PM 84.0 °F - 51.1 °F 32% 29.96 in 10.0 mi SSE 20.7 mph - N/A   Clear
6:53 PM 80.1 °F 79.9 °F 53.1 °F 39% 29.97 in 10.0 mi SSE 15.0 mph - N/A   Clear
7:53 PM 75.9 °F - 55.0 °F 48% 29.97 in 10.0 mi SSE 12.7 mph - N/A   Clear
8:41 PM 73.4 °F - 55.4 °F 53% 30.18 in 10.0 mi North 17.3 mph 23.0 mph N/A Thunderstorm Clear
8:53 PM 73.0 °F - 52.0 °F 48% 30.04 in 10.0 mi North 10.4 mph 27.6 mph N/A Thunderstorm Partly Cloudy
9:10 PM 73.4 °F - 51.8 °F 47% 30.20 in 5.0 mi NNE 13.8 mph 18.4 mph N/A   Haze
9:53 PM 72.0 °F - 53.1 °F 51% 30.00 in 10.0 mi SE 20.7 mph - 0.00 in   Mostly Cloudy
10:41 PM 71.6 °F - 57.2 °F 60% 30.20 in 10.0 mi SE 5.8 mph - N/A Thunderstorm Thunderstorm
10:53 PM 72.0 °F - 57.0 °F 59% 30.03 in 10.0 mi ESE 4.6 mph - N/A Thunderstorm Thunderstorm
11:27 PM 64.4 °F - 59.0 °F 83% 30.22 in 8.0 mi West 8.1 mph - 0.04 in Rain , Thunderstorm Light Thunderstorms and Rain
11:53 PM 69.1 °F - 53.1 °F 57% 30.02 in 9.0 mi SW 15.0 mph 20.7 mph 0.10 in Rain Light Rain